FW9607 Weather Reports


Display with metric or nautical units.
time (UTC)temp
F
wind
direction
speed
MPH
gust
MPH
rain 1hr
in
rain 24hr
in
rain mn
in
humidity
%
barometer
mb
20260901151038 88 188 2.0 9.0 0.00 0.00 0.00 69 1013.9
20260901150527 88 138 2.0 9.0 0.00 0.00 0.00 70 1013.9
20260901150035 88 172 3.0 11.0 0.00 0.00 0.00 70 1013.9
20260901145526 87 171 3.0 11.0 0.00 0.00 0.00 72 1013.9
20260901145035 87 96 2.0 8.0 0.00 0.00 0.00 73 1013.9
20260901144523 87 126 2.0 11.0 0.00 0.00 0.00 74 1013.9
20260901144035 86 177 3.0 11.0 0.00 0.00 0.00 75 1013.9
20260901143525 86 162 4.0 9.0 0.00 0.00 0.00 77 1013.8
20260901142525 86 188 3.0 9.0 0.00 0.00 0.00 78 1013.8
20260901141035 86 178 2.0 8.0 0.00 0.00 0.00 79 1013.9
20260901140528 86 126 2.0 5.0 0.00 0.00 0.00 78 1013.9
20260901140032 86 150 1.0 4.0 0.00 0.00 0.00 79 1014.0
20260901135527 85 178 1.0 4.0 0.00 0.00 0.00 79 1013.9
20260901135028 85 152 2.0 3.0 0.00 0.00 0.00 80 1013.9
20260901134523 85 131 2.0 3.0 0.00 0.00 0.00 81 1013.9
20260901133526 84 187 2.0 3.0 0.00 0.00 0.00 82 1013.8
20260901133009 83 153 2.0 3.0 0.00 0.00 0.00 83 1013.8
20260901132452 83 166 2.0 3.0 0.00 0.00 0.00 84 1013.8
20260901131952 83 158 2.0 3.0 0.00 0.00 0.00 84 1013.8
20260901130952 82 150 2.0 3.0 0.00 0.00 0.00 86 1013.6
20260901130452 82 125 2.0 3.0 0.00 0.00 0.00 87 1013.5
20260901125952 81 127 2.0 3.0 0.00 0.00 0.00 89 1013.4
20260901125452 80 169 3.0 4.0 0.00 0.00 0.00 89 1013.3
20260901123952 80 156 2.0 3.0 0.00 0.00 0.00 90 1013.2
20260901123454 80 149 2.0 3.0 0.00 0.00 0.00 91 1013.3
20260901122954 80 162 2.0 3.0 0.00 0.00 0.00 91 1013.2
20260901122453 79 168 2.0 3.0 0.00 0.00 0.00 91 1013.1
20260901121952 80 182 2.0 3.0 0.00 0.00 0.00 91 1013.1
20260901120938 80 178 2.0 2.0 0.00 0.00 0.00 90 1013.0
20260901120438 80 180 2.0 2.0 0.00 0.00 0.00 90 1012.9
20260901115938 80 183 2.0 3.0 0.00 0.00 0.00 90 1012.9
20260901115438 80 180 2.0 3.0 0.00 0.00 0.00 90 1012.8
20260901114938 80 161 2.0 3.0 0.00 0.00 0.00 90 1012.8
20260901114438 80 168 2.0 3.0 0.00 0.00 0.00 90 1012.8
20260901113939 80 158 2.0 3.0 0.00 0.00 0.00 90 1012.9
20260901113438 80 178 2.0 3.0 0.00 0.00 0.00 90 1012.9
20260901112438 80 167 2.0 3.0 0.00 0.00 0.00 90 1012.8
20260901111939 80 167 2.0 3.0 0.00 0.00 0.00 90 1012.8
20260901111438 80 163 2.0 2.0 0.00 0.00 0.00 90 1012.8
20260901110443 80 167 2.0 2.0 0.00 0.00 0.00 89 1012.8
20260901105923 81 174 2.0 3.0 0.00 0.00 0.00 89 1012.8
20260901105428 81 152 2.0 3.0 0.00 0.00 0.00 89 1012.8
20260901104924 81 168 2.0 2.0 0.00 0.00 0.00 89 1012.9
20260901104428 81 161 2.0 3.0 0.00 0.00 0.00 89 1012.9
20260901103926 81 165 2.0 3.0 0.00 0.00 0.00 89 1012.9
20260901103429 81 137 2.0 3.0 0.00 0.00 0.00 90 1012.9
20260901102924 80 143 2.0 2.0 0.00 0.00 0.00 90 1013.0
20260901102428 80 109 2.0 3.0 0.00 0.00 0.00 90 1012.9
20260901100927 81 143 1.0 2.0 0.00 0.00 0.00 89 1012.9
20260901100429 81 167 1.0 2.0 0.00 0.00 0.00 89 1012.9
20260901095924 81 176 2.0 2.0 0.00 0.00 0.00 89 1012.9
20260901095414 81 162 2.0 2.0 0.00 0.00 0.00 89 1012.9
20260901094855 81 129 1.0 2.0 0.00 0.00 0.00 89 1013.0
20260901094357 81 158 1.0 2.0 0.00 0.00 0.00 90 1013.0
20260901093839 81 159 1.0 2.0 0.00 0.00 0.00 89 1013.0
20260901093340 81 161 1.0 2.0 0.00 0.00 0.00 89 1013.0
20260901092840 81 168 2.0 2.0 0.00 0.00 0.00 89 1012.9
20260901092343 81 175 2.0 2.0 0.00 0.00 0.00 89 1012.9
20260901091840 81 170 2.0 2.0 0.00 0.00 0.00 89 1012.9
20260901090840 81 165 2.0 2.0 0.00 0.00 0.00 89 1012.9
20260901090341 82 175 2.0 3.0 0.00 0.00 0.00 88 1012.9
20260901085841 82 176 2.0 3.0 0.00 0.00 0.00 88 1013.0
20260901085341 82 146 2.0 3.0 0.00 0.00 0.00 88 1013.0
20260901084842 82 152 1.0 2.0 0.00 0.00 0.00 88 1013.0
20260901084340 82 154 1.0 2.0 0.00 0.00 0.00 88 1013.0
20260901083825 82 142 1.0 2.0 0.00 0.00 0.00 89 1013.0
20260901083326 82 145 1.0 2.0 0.00 0.00 0.00 88 1013.0
20260901082826 82 134 1.0 2.0 0.00 0.00 0.00 88 1013.0
20260901082326 82 167 1.0 2.0 0.00 0.00 0.00 88 1013.0
20260901081828 82 160 1.0 2.0 0.00 0.00 0.00 88 1013.1
20260901081327 82 152 1.0 3.0 0.00 0.00 0.00 88 1013.1
20260901080327 82 157 1.0 2.0 0.00 0.00 0.00 88 1013.1
20260901075829 82 138 1.0 2.0 0.00 0.00 0.00 88 1013.1
20260901075325 82 166 1.0 2.0 0.00 0.00 0.00 88 1013.1
20260901074325 82 0 1.0 2.0 0.00 0.00 0.00 88 1013.2
20260901073812 82 138 1.0 2.0 0.00 0.00 0.00 87 1013.2
20260901073311 82 154 1.0 2.0 0.00 0.00 0.00 87 1013.3
20260901072757 82 179 1.0 2.0 0.00 0.00 0.00 87 1013.2
20260901072258 82 174 1.0 2.0 0.00 0.00 0.00 87 1013.4
20260901071757 82 0 0.0 1.0 0.00 0.00 0.00 87 1013.4
20260901071243 82 182 0.0 2.0 0.00 0.00 0.00 87 1013.4
20260901070746 82 176 0.0 2.0 0.00 0.00 0.00 87 1013.4
20260901070229 82 155 0.0 2.0 0.00 0.00 0.00 87 1013.4
20260901065731 83 148 1.0 2.0 0.00 0.00 0.00 86 1013.4
20260901065230 83 201 0.0 1.0 0.00 0.00 0.00 86 1013.4
20260901064731 83 147 0.0 2.0 0.00 0.00 0.00 86 1013.4
20260901063730 83 173 1.0 2.0 0.00 0.00 0.00 86 1013.3
20260901063228 83 170 1.0 2.0 0.00 0.00 0.00 86 1013.3
20260901062229 83 189 1.0 3.0 0.00 0.00 0.00 86 1013.4
20260901061727 83 153 1.0 3.0 0.00 0.00 0.00 85 1013.4
20260901061229 83 160 2.0 2.0 0.00 0.00 0.00 85 1013.3
20260901060659 83 182 2.0 3.0 0.00 0.00 0.00 85 1013.3
20260901055659 83 188 2.0 5.0 0.00 0.00 0.00 85 1013.3
20260901055158 84 156 2.0 3.0 0.00 0.00 0.00 84 1013.4
20260901054158 84 159 2.0 3.0 0.00 0.00 0.00 84 1013.3
20260901053658 84 155 2.0 3.0 0.00 0.00 0.00 84 1013.3
20260901053159 84 142 1.0 2.0 0.00 0.00 0.00 84 1013.3
20260901052658 84 163 2.0 3.0 0.00 0.00 0.00 84 1013.3
20260901052158 84 138 2.0 3.0 0.00 0.00 0.00 84 1013.4
20260901051159 84 155 1.0 2.0 0.00 0.00 0.00 84 1013.3
20260901050658 84 178 1.0 2.0 0.00 0.00 0.00 83 1013.4
20260901050144 84 152 2.0 3.0 0.00 0.00 0.00 83 1013.3
20260901045644 84 147 2.0 3.0 0.00 0.00 0.00 83 1013.4
20260901045145 85 132 2.0 3.0 0.00 0.00 0.00 83 1013.3
20260901044647 85 125 2.0 4.0 0.00 0.00 0.00 83 1013.3
20260901044133 85 109 2.0 4.0 0.00 0.00 0.00 83 1013.4
20260901043630 85 164 2.0 3.0 0.00 0.00 0.00 83 1013.4
20260901043132 85 186 1.0 3.0 0.00 0.00 0.00 82 1013.4
20260901042631 85 127 2.0 3.0 0.00 0.00 0.00 82 1013.4
20260901042130 85 170 2.0 3.0 0.00 0.00 0.00 82 1013.4
20260901041630 85 129 2.0 3.0 0.00 0.00 0.00 82 1013.5
20260901041132 85 160 2.0 4.0 0.00 0.00 0.00 82 1013.5
20260901040629 85 188 1.0 4.0 0.00 0.00 0.00 82 1013.6
20260901040129 85 128 1.0 3.0 0.00 0.00 0.00 82 1013.6
20260901035627 85 149 1.0 3.0 0.00 0.00 0.00 82 1013.6
20260901035129 86 0 2.0 3.0 0.00 0.00 0.00 82 1013.6
20260901034612 86 180 2.0 3.0 0.00 0.00 0.00 81 1013.6
20260901034115 86 187 1.0 3.0 0.00 0.00 0.00 81 1013.5
20260901033612 86 129 2.0 3.0 0.00 0.00 0.00 81 1013.5
20260901033114 86 117 2.0 5.0 0.00 0.00 0.00 81 1013.5
20260901032609 86 139 2.0 5.0 0.00 0.00 0.00 80 1013.5
20260901032106 86 177 2.0 5.0 0.00 0.00 0.00 80 1013.3
20260901031108 86 0 2.0 5.0 0.00 0.00 0.00 79 1013.1
20260901030103 86 167 2.0 5.0 0.00 0.00 0.00 78 1012.9
20260901025101 86 122 2.0 5.0 0.00 0.00 0.00 78 1012.7
20260901022600 87 0 3.0 9.0 0.00 0.00 0.00 77 1012.3
20260901022102 87 118 3.0 9.0 0.00 0.00 0.00 76 1012.3
20260901021101 87 112 3.0 7.0 0.00 0.00 0.00 76 1012.1
20260901015558 87 87 3.0 9.0 0.00 0.00 0.00 75 1012.1
20260901015056 87 152 4.0 9.0 0.00 0.00 0.00 75 1012.0
20260901014556 87 118 4.0 9.0 0.00 0.00 0.00 74 1012.0
20260901014056 87 141 4.0 8.0 0.00 0.00 0.00 74 1011.9
20260901013555 87 74 4.0 10.0 0.00 0.00 0.00 74 1011.9
20260901013056 87 166 4.0 10.0 0.00 0.00 0.00 73 1011.9
20260901012556 87 102 4.0 8.0 0.00 0.00 0.00 73 1011.8
20260901012056 87 139 4.0 8.0 0.00 0.00 0.00 73 1011.7
20260901011556 87 150 3.0 8.0 0.00 0.00 0.00 72 1011.7
20260901011056 88 154 3.0 8.0 0.00 0.00 0.00 72 1011.6
20260901010557 88 119 3.0 7.0 0.00 0.00 0.00 71 1011.5
20260901010057 88 102 4.0 11.0 0.00 0.00 0.00 71 1011.5
20260901005556 88 258 4.0 11.0 0.00 0.00 0.00 71 1011.4
20260901005054 88 127 5.0 11.0 0.00 0.00 0.00 70 1011.3
20260901004051 89 89 5.0 11.0 0.00 0.00 0.00 68 1011.3
20260901003551 89 158 4.0 11.0 0.00 0.00 0.00 68 1011.2
20260901003050 89 85 4.0 10.0 0.00 0.00 0.00 66 1011.2
20260901002550 89 121 4.0 11.0 0.00 0.00 0.00 65 1011.2
20260901002050 90 137 5.0 11.0 0.00 0.00 0.00 65 1011.2
20260901001050 91 120 5.0 11.0 0.00 0.00 0.00 63 1011.1
20260901000051 91 89 5.0 14.0 0.00 0.00 0.00 62 1011.0
20260831235551 91 130 5.0 12.0 0.00 0.00 0.00 59 1011.0
20260831235051 91 132 5.0 12.0 0.00 0.00 0.00 58 1011.0
20260831234549 92 115 5.0 10.0 0.00 0.00 0.00 57 1010.9
20260831234048 92 120 4.0 11.0 0.00 0.00 0.00 58 1010.8
20260831233546 92 152 4.0 12.0 0.00 0.00 0.00 56 1010.8
20260831233042 92 128 4.0 12.0 0.00 0.00 0.00 56 1010.8
20260831232542 92 130 5.0 12.0 0.00 0.00 0.00 54 1010.7
20260831231542 93 121 5.0 11.0 0.00 0.00 0.00 51 1010.8
20260831230543 93 104 5.0 13.0 0.00 0.00 0.00 51 1010.7
20260831230043 94 142 5.0 13.0 0.00 0.00 0.00 50 1010.8
20260831225543 94 122 5.0 11.0 0.00 0.00 0.00 49 1010.9
20260831224543 94 124 5.0 13.0 0.00 0.00 0.00 46 1010.8
20260831223543 95 130 5.0 11.0 0.00 0.00 0.00 49 1010.7
20260831223043 95 144 4.0 9.0 0.00 0.00 0.00 49 1010.8
20260831222541 95 201 5.0 10.0 0.00 0.00 0.00 48 1010.8
20260831222042 95 122 5.0 11.0 0.00 0.00 0.00 47 1010.7
20260831221038 96 121 5.0 10.0 0.00 0.00 0.00 46 1010.8
20260831220537 97 80 4.0 10.0 0.00 0.00 0.00 45 1010.7
20260831220038 97 115 4.0 9.0 0.00 0.00 0.00 43 1010.8
20260831215538 96 110 5.0 11.0 0.00 0.00 0.00 43 1010.7
20260831215037 97 111 5.0 11.0 0.00 0.00 0.00 43 1010.7
20260831214537 97 129 4.0 9.0 0.00 0.00 0.00 43 1010.8
20260831214038 97 138 4.0 9.0 0.00 0.00 0.00 44 1010.9
20260831213538 97 112 4.0 9.0 0.00 0.00 0.00 43 1010.8
20260831213038 97 109 4.0 10.0 0.00 0.00 0.00 44 1010.8
20260831212538 97 130 5.0 12.0 0.00 0.00 0.00 44 1010.7
20260831212038 97 86 5.0 12.0 0.00 0.00 0.00 45 1010.9
20260831211539 97 133 4.0 10.0 0.00 0.00 0.00 46 1011.0
20260831210539 97 98 5.0 11.0 0.00 0.00 0.00 48 1011.0
20260831210036 97 127 5.0 12.0 0.00 0.00 0.00 48 1011.1
20260831205535 98 144 4.0 12.0 0.00 0.00 0.00 49 1011.1
20260831205036 98 109 3.0 8.0 0.00 0.00 0.00 49 1011.1
20260831204536 98 165 4.0 8.0 0.00 0.00 0.00 49 1011.3
20260831203536 98 122 4.0 10.0 0.00 0.00 0.00 50 1011.4
20260831203036 97 131 5.0 10.0 0.00 0.00 0.00 52 1011.5
20260831202536 98 116 4.0 11.0 0.00 0.00 0.00 52 1011.6
20260831202036 98 106 3.0 11.0 0.00 0.00 0.00 50 1011.6
20260831201536 98 78 3.0 9.0 0.00 0.00 0.00 50 1011.7
20260831201036 98 121 3.0 9.0 0.00 0.00 0.00 50 1011.8
20260831200536 98 102 3.0 7.0 0.00 0.00 0.00 51 1011.8
20260831200038 99 139 4.0 10.0 0.00 0.00 0.00 48 1011.9
20260831195536 98 128 4.0 10.0 0.00 0.00 0.00 50 1012.0
20260831195038 98 173 3.0 9.0 0.00 0.00 0.00 48 1012.0
20260831194537 99 97 3.0 10.0 0.00 0.00 0.00 47 1012.1
20260831194036 98 192 3.0 10.0 0.00 0.00 0.00 48 1012.1
20260831193534 98 119 3.0 6.0 0.00 0.00 0.00 48 1012.2
20260831193036 98 94 3.0 8.0 0.00 0.00 0.00 48 1012.2
20260831192534 98 103 3.0 8.0 0.00 0.00 0.00 46 1012.3
20260831191534 98 155 3.0 9.0 0.00 0.00 0.00 47 1012.4
20260831191035 98 83 4.0 10.0 0.00 0.00 0.00 47 1012.4
20260831190534 98 71 4.0 10.0 0.00 0.00 0.00 47 1012.5
20260831190034 98 113 3.0 8.0 0.00 0.00 0.00 47 1012.4
20260831185534 98 90 3.0 8.0 0.00 0.00 0.00 47 1012.5
20260831185034 98 103 4.0 8.0 0.00 0.00 0.00 47 1012.6
20260831184034 98 32 3.0 9.0 0.00 0.00 0.00 46 1012.6
20260831183533 98 84 2.0 9.0 0.00 0.00 0.00 47 1012.8
20260831182533 98 218 2.0 6.0 0.00 0.00 0.00 46 1012.9
20260831182032 98 138 2.0 6.0 0.00 0.00 0.00 47 1012.9
20260831181531 97 164 3.0 10.0 0.00 0.00 0.00 46 1013.0
20260831181031 96 144 3.0 10.0 0.00 0.00 0.00 48 1013.0
20260831180531 96 19 3.0 8.0 0.00 0.00 0.00 50 1013.0
20260831180032 96 154 3.0 10.0 0.00 0.00 0.00 49 1013.1
20260831175532 96 146 4.0 10.0 0.00 0.00 0.00 50 1013.2
20260831175032 97 95 3.0 10.0 0.00 0.00 0.00 49 1013.2
20260831174532 97 81 2.0 9.0 0.00 0.00 0.00 48 1013.2
20260831174032 96 142 3.0 8.0 0.00 0.00 0.00 47 1013.3
20260831173532 96 178 3.0 8.0 0.00 0.00 0.00 48 1013.4
20260831173032 96 219 3.0 8.0 0.00 0.00 0.00 48 1013.5
20260831172030 96 130 2.0 8.0 0.00 0.00 0.00 49 1013.5
20260831171532 96 146 3.0 11.0 0.00 0.00 0.00 49 1013.5
20260831171027 95 124 4.0 11.0 0.00 0.00 0.00 50 1013.6
20260831170531 95 184 3.0 8.0 0.00 0.00 0.00 49 1013.7
20260831170028 95 134 3.0 8.0 0.00 0.00 0.00 51 1013.7
20260831165524 95 147 3.0 6.0 0.00 0.00 0.00 51 1013.7
20260831165024 94 106 3.0 8.0 0.00 0.00 0.00 53 1013.8
20260831164020 94 199 3.0 7.0 0.00 0.00 0.00 54 1013.7
20260831163521 94 105 3.0 7.0 0.00 0.00 0.00 54 1013.9
20260831163022 94 122 3.0 7.0 0.00 0.00 0.00 53 1013.7
20260831162521 94 222 3.0 10.0 0.00 0.00 0.00 55 1013.7
20260831161022 92 192 3.0 10.0 0.00 0.00 0.00 57 1013.8
20260831160521 92 205 3.0 10.0 0.00 0.00 0.00 59 1013.8
20260831160023 92 159 4.0 11.0 0.00 0.00 0.00 59 1013.8
20260831155020 92 186 4.0 11.0 0.00 0.00 0.00 60 1013.7
20260831154523 91 228 4.0 9.0 0.00 0.00 0.00 62 1013.8
20260831154022 91 262 4.0 10.0 0.00 0.00 0.00 62 1013.8
20260831153523 90 182 4.0 10.0 0.00 0.00 0.00 63 1013.7
20260831153021 90 171 3.0 11.0 0.00 0.00 0.00 64 1013.7
20260831152523 90 161 4.0 11.0 0.00 0.00 0.00 65 1013.6